Home > Weather > Pamplona > Past weeks

Flag for Spain Past Weather in Pamplona, Spain — Yesterday and Last 2 Weeks

Now
73 °F

Passing clouds.


Feels Like: 77 °F
Forecast: 58 / 82 °F
Wind: 13 mph from Northwest

Location: Pamplona / Noain

Current Time: Jul 24, 2016 at 2:54:35 PM

Latest Report: Jul 24, 2016 at 2:30 PM


Visibility: N/A

Pressure: 30.18 "Hg

Humidity: 57%

Dew Point: 57 °F

Location of PamplonaLocation

Past Weather in Pamplona — Graph

°F

Pamplona Temperature Yesterday

Maximum temperature yesterday: 73 °F (at 2:30 PM)
Minimum temperature yesterday: 59 °F (at 2:00 AM)
Average temperature yesterday: 65 °F

High & Low Weather Summary for the Past Weeks

 TemperatureHumidityPressure
High100 °F (Jul 19, 5:00 PM)94% (Jul 10, 5:30 AM)30.36 "Hg (Jul 10, 5:30 AM)
Low50 °F (Jul 15, 6:00 AM)12% (Jul 19, 7:00 PM)29.98 "Hg (Jul 10, 3:00 PM)
Average71 °F58%30.14 "Hg
* Reported Jul 9 1:00 PM — Jul 24 1:30 PM, Pamplona, Weather by CustomWeather, © 2016

Note: Actual official high and low records may vary slightly from our data, if they occured in-between our weather recording intervals... More about our weather records

Advertising

Pamplona Weather History for the Previous 24 Hours

Scroll right to see more
 ConditionsComfort  
Time TempWeatherWind HumidityBarometerVisibility
1:30 PM
Sun, Jul 24
73 °FScattered clouds.12 mph57%30.21 "HgN/A
1:00 PM72 °FScattered clouds.14 mph61%30.21 "HgN/A
12:30 PM72 °FPartly sunny.14 mph61%30.21 "HgN/A
12:00 PM70 °FPartly sunny.14 mph64%30.21 "HgN/A
11:30 AM68 °FPartly sunny.14 mph69%30.21 "HgN/A
11:00 AM68 °FPartly sunny.10 mph69%30.21 "HgN/A
10:30 AM66 °FPartly sunny.10 mph68%30.21 "HgN/A
10:00 AM66 °FPartly sunny.10 mph68%30.21 "HgN/A
9:30 AM64 °FPartly sunny.10 mph73%30.21 "HgN/A
9:00 AM63 °FPartly sunny.10 mph77%30.21 "HgN/A
8:30 AM63 °FPartly sunny.10 mph77%30.21 "HgN/A
8:00 AM63 °FPartly sunny.9 mph77%30.21 "HgN/A
7:30 AM61 °FPassing clouds.9 mph83%30.21 "HgN/A
7:00 AM61 °FPassing clouds.10 mph83%30.21 "HgN/A
6:30 AM61 °FPassing clouds.10 mph83%30.18 "HgN/A
6:00 AM61 °FPassing clouds.10 mph83%30.21 "HgN/A
5:30 AM61 °FPassing clouds.9 mph83%30.21 "HgN/A
5:00 AM61 °FOvercast.10 mph77%30.21 "HgN/A
4:30 AM61 °FOvercast.9 mph77%30.21 "HgN/A
4:00 AM61 °FOvercast.10 mph77%30.21 "HgN/A
3:30 AM61 °FOvercast.9 mph77%30.21 "HgN/A
3:00 AM61 °FMostly cloudy.9 mph83%30.21 "HgN/A
2:30 AM63 °FMostly cloudy.10 mph77%30.21 "HgN/A
2:00 AM63 °FMostly cloudy.10 mph77%30.24 "HgN/A
1:30 AM61 °FPassing clouds.10 mph83%30.24 "HgN/A
1:00 AM61 °FPassing clouds.12 mph83%30.24 "HgN/A
12:30 AM63 °FPassing clouds.13 mph77%30.24 "HgN/A
12:00 AM63 °FPartly cloudy.10 mph77%30.24 "HgN/A
11:30 PM
Sat, Jul 23
63 °FPartly cloudy.15 mph77%30.24 "HgN/A
11:00 PM63 °FPartly cloudy.13 mph83%30.24 "HgN/A
10:30 PM64 °FBroken clouds.15 mph73%30.24 "HgN/A
10:00 PM64 °FBroken clouds.16 mph73%30.24 "HgN/A
9:30 PM64 °FPartly sunny.14 mph73%30.24 "HgN/A
9:00 PM64 °FPartly sunny.16 mph78%30.24 "HgN/A
8:30 PM66 °FBroken clouds.15 mph73%30.24 "HgN/A
8:00 PM66 °FScattered clouds.18 mph73%30.21 "HgN/A
7:30 PM68 °FPassing clouds.21 mph69%30.21 "HgN/A
7:00 PM68 °FPassing clouds.23 mph69%30.21 "HgN/A
6:30 PM68 °FPassing clouds.23 mph69%30.21 "HgN/A
6:00 PM72 °FPassing clouds.22 mph61%30.21 "HgN/A
5:30 PM72 °FScattered clouds.20 mph61%30.21 "HgN/A
5:00 PM72 °FBroken clouds.18 mph65%30.21 "HgN/A
4:30 PM72 °FBroken clouds.18 mph65%30.21 "HgN/A
4:00 PM72 °FBroken clouds.22 mph65%30.21 "HgN/A
3:00 PM72 °FPartly sunny.18 mph65%30.21 "HgN/A
2:30 PM73 °FBroken clouds.17 mph57%30.21 "HgN/A
2:00 PM72 °FBroken clouds.15 mph65%30.24 "HgN/A
Weather by CustomWeather, © 2016

See weather overviewHow to use our weather pages